TimeEDT,TemperatureF,Dew PointF,Humidity,Sea Level PressureIn,VisibilityMPH,Wind Direction,Wind SpeedMPH,Gust SpeedMPH,PrecipitationIn,Events,Conditions,WindDirDegrees,DateUTC
12:15 AM,55.4,50.0,82,30.27,10.0,South,10.4,-,N/A,,Clear,190,2013-09-07 04:15:00
12:35 AM,55.4,50.0,82,30.27,10.0,South,10.4,-,N/A,,Clear,190,2013-09-07 04:35:00
12:55 AM,55.4,50.0,82,30.27,10.0,South,10.4,-,N/A,,Clear,190,2013-09-07 04:55:00
1:15 AM,55.4,50.0,82,30.27,10.0,South,10.4,-,N/A,,Clear,190,2013-09-07 05:15:00
1:35 AM,55.4,50.0,82,30.26,10.0,South,9.2,-,N/A,,Clear,190,2013-09-07 05:35:00
1:55 AM,55.4,50.0,82,30.26,10.0,South,6.9,-,N/A,,Clear,190,2013-09-07 05:55:00
2:15 AM,55.4,50.0,82,30.26,10.0,South,8.1,-,N/A,,Clear,190,2013-09-07 06:15:00
2:35 AM,55.4,50.0,82,30.25,10.0,SSW,5.8,-,N/A,,Clear,200,2013-09-07 06:35:00
2:55 AM,55.4,51.8,88,30.25,10.0,South,5.8,-,N/A,,Clear,190,2013-09-07 06:55:00
3:15 AM,55.4,51.8,88,30.25,10.0,SSW,4.6,-,N/A,,Clear,210,2013-09-07 07:15:00
3:35 AM,55.4,51.8,88,30.25,10.0,SW,5.8,-,N/A,,Clear,230,2013-09-07 07:35:00
3:55 AM,53.6,51.8,94,30.24,10.0,SW,6.9,-,N/A,,Clear,230,2013-09-07 07:55:00
4:15 AM,53.6,51.8,94,30.24,10.0,SW,6.9,-,N/A,,Clear,230,2013-09-07 08:15:00
4:35 AM,53.6,51.8,94,30.24,10.0,SW,6.9,-,N/A,,Scattered Clouds,230,2013-09-07 08:35:00
4:55 AM,55.4,53.6,94,30.24,10.0,WSW,8.1,-,N/A,,Mostly Cloudy,250,2013-09-07 08:55:00
5:15 AM,55.4,51.8,88,30.24,10.0,WSW,8.1,-,N/A,,Overcast,240,2013-09-07 09:15:00
5:35 AM,55.4,53.6,94,30.24,10.0,WSW,8.1,-,N/A,,Overcast,240,2013-09-07 09:35:00
5:55 AM,55.4,51.8,88,30.24,10.0,WSW,8.1,-,N/A,,Overcast,240,2013-09-07 09:55:00
6:15 AM,55.4,53.6,94,30.24,10.0,WSW,8.1,-,N/A,,Overcast,240,2013-09-07 10:15:00
6:35 AM,55.4,53.6,94,30.24,10.0,WSW,11.5,-,N/A,,Mostly Cloudy,250,2013-09-07 10:35:00
6:55 AM,55.4,53.6,94,30.23,10.0,WSW,10.4,-,N/A,,Scattered Clouds,250,2013-09-07 10:55:00
7:15 AM,55.4,55.4,100,30.23,7.0,WSW,11.5,-,N/A,,Scattered Clouds,250,2013-09-07 11:15:00
7:35 AM,55.4,55.4,100,30.23,7.0,WSW,10.4,-,N/A,,Clear,250,2013-09-07 11:35:00
7:55 AM,57.2,55.4,94,30.23,7.0,West,9.2,-,N/A,,Clear,260,2013-09-07 11:55:00
8:15 AM,57.2,55.4,94,30.24,7.0,West,9.2,-,N/A,,Clear,260,2013-09-07 12:15:00
8:35 AM,57.2,57.2,100,30.23,7.0,WSW,10.4,-,N/A,,Clear,250,2013-09-07 12:35:00
8:55 AM,59.0,57.2,94,30.22,7.0,WSW,10.4,-,N/A,,Clear,250,2013-09-07 12:55:00
9:15 AM,59.0,57.2,94,30.22,7.0,WSW,11.5,-,N/A,,Clear,250,2013-09-07 13:15:00
9:35 AM,59.0,57.2,94,30.23,10.0,WSW,9.2,-,N/A,,Clear,250,2013-09-07 13:35:00
9:55 AM,60.8,57.2,88,30.23,10.0,West,8.1,-,N/A,,Clear,260,2013-09-07 13:55:00
10:15 AM,60.8,57.2,88,30.24,10.0,West,9.2,-,N/A,,Clear,270,2013-09-07 14:15:00
10:35 AM,62.6,57.2,82,30.24,10.0,West,8.1,-,N/A,,Clear,280,2013-09-07 14:35:00
10:55 AM,62.6,57.2,82,30.24,10.0,West,5.8,-,N/A,,Clear,280,2013-09-07 14:55:00
11:15 AM,62.6,55.4,77,30.24,10.0,West,9.2,-,N/A,,Clear,280,2013-09-07 15:15:00
11:35 AM,62.6,53.6,72,30.24,10.0,West,8.1,-,N/A,,Clear,280,2013-09-07 15:35:00
11:55 AM,64.4,53.6,68,30.24,10.0,West,5.8,-,N/A,,Clear,270,2013-09-07 15:55:00
12:15 PM,64.4,53.6,68,30.23,10.0,WNW,5.8,-,N/A,,Clear,290,2013-09-07 16:15:00
12:35 PM,66.2,53.6,64,30.22,10.0,WSW,5.8,-,N/A,,Clear,250,2013-09-07 16:35:00
12:55 PM,66.2,53.6,64,30.21,10.0,WSW,6.9,-,N/A,,Clear,250,2013-09-07 16:55:00
1:15 PM,68.0,53.6,60,30.21,10.0,West,6.9,-,N/A,,Clear,280,2013-09-07 17:15:00
1:35 PM,68.0,53.6,60,30.21,10.0,WNW,3.5,-,N/A,,Clear,290,2013-09-07 17:35:00
1:55 PM,69.8,55.4,60,30.20,10.0,WNW,5.8,-,N/A,,Clear,290,2013-09-07 17:55:00
2:15 PM,69.8,55.4,60,30.20,10.0,West,4.6,-,N/A,,Clear,270,2013-09-07 18:15:00
2:35 PM,71.6,55.4,57,30.19,10.0,West,6.9,-,N/A,,Clear,270,2013-09-07 18:35:00
2:55 PM,71.6,53.6,53,30.19,10.0,West,5.8,-,N/A,,Clear,280,2013-09-07 18:55:00
3:15 PM,71.6,53.6,53,30.18,10.0,West,6.9,-,N/A,,Clear,260,2013-09-07 19:15:00
3:35 PM,71.6,53.6,53,30.18,10.0,WSW,9.2,-,N/A,,Clear,240,2013-09-07 19:35:00
3:55 PM,71.6,51.8,50,30.17,10.0,West,6.9,-,N/A,,Clear,260,2013-09-07 19:55:00
4:15 PM,71.6,53.6,53,30.17,10.0,West,6.9,-,N/A,,Clear,280,2013-09-07 20:15:00
4:35 PM,71.6,51.8,50,30.17,10.0,West,6.9,-,N/A,,Clear,280,2013-09-07 20:35:00
4:55 PM,71.6,51.8,50,30.17,10.0,West,10.4,-,N/A,,Clear,270,2013-09-07 20:55:00
5:15 PM,71.6,53.6,53,30.16,10.0,West,9.2,-,N/A,,Clear,270,2013-09-07 21:15:00
5:35 PM,71.6,51.8,50,30.16,10.0,West,11.5,-,N/A,,Clear,270,2013-09-07 21:35:00
5:55 PM,71.6,51.8,50,30.16,10.0,West,9.2,16.1,N/A,,Clear,270,2013-09-07 21:55:00
6:15 PM,69.8,48.2,46,30.16,7.0,West,9.2,16.1,N/A,,Clear,270,2013-09-07 22:15:00
6:35 PM,69.8,50.0,49,30.16,10.0,West,9.2,-,N/A,,Clear,280,2013-09-07 22:35:00
6:55 PM,66.2,50.0,56,30.16,10.0,West,9.2,-,N/A,,Clear,270,2013-09-07 22:55:00
7:15 PM,66.2,50.0,56,30.16,10.0,West,6.9,-,N/A,,Clear,280,2013-09-07 23:15:00
7:35 PM,64.4,50.0,59,30.16,10.0,West,8.1,-,N/A,,Clear,280,2013-09-07 23:35:00
7:55 PM,64.4,48.2,56,30.16,10.0,West,9.2,-,N/A,,Clear,280,2013-09-07 23:55:00
8:35 PM,64.4,48.2,56,30.16,10.0,West,11.5,-,N/A,,Clear,280,2013-09-08 00:35:00
8:55 PM,64.4,50.0,59,30.16,10.0,West,9.2,-,N/A,,Clear,280,2013-09-08 00:55:00
9:15 PM,62.6,50.0,63,30.17,10.0,West,10.4,-,N/A,,Clear,280,2013-09-08 01:15:00
9:35 PM,62.6,51.8,68,30.16,10.0,WNW,8.1,-,N/A,,Clear,290,2013-09-08 01:35:00
9:55 PM,62.6,51.8,68,30.16,10.0,WNW,9.2,-,N/A,,Clear,290,2013-09-08 01:55:00
10:15 PM,62.6,51.8,68,30.16,10.0,WNW,12.7,16.1,N/A,,Clear,300,2013-09-08 02:15:00
10:35 PM,60.8,51.8,72,30.15,10.0,WNW,12.7,-,N/A,,Clear,300,2013-09-08 02:35:00
10:55 PM,60.8,50.0,68,30.15,10.0,WNW,13.8,-,N/A,,Clear,290,2013-09-08 02:55:00
11:15 PM,60.8,51.8,72,30.14,10.0,West,13.8,-,N/A,,Clear,280,2013-09-08 03:15:00
11:35 PM,60.8,51.8,72,30.14,10.0,WNW,13.8,-,N/A,,Clear,290,2013-09-08 03:35:00
11:55 PM,60.8,51.8,72,30.14,10.0,West,12.7,-,N/A,,Clear,280,2013-09-08 03:55:00